Location: Dackenheim
(49.5215°N, 8.1854°E)
Time: 15:46:42
(UTC+00:00)

BlueWalker 3 - Pass Details

Date: 21 January 2026
Orbit: 451 x 461 km, 53.2° (Epoch: 16 February)

Event Time Altitude Azimuth Distance (km) Brightness Sun altitude
Rises 18:55:57 0° 235° (SW) 2,449 6.2 -27.4°
Reaches altitude 10° 18:58:05 10° 233° (SW) 1,579 5.1 -27.7°
Enters shadow 18:59:09 18° 230° (SW) 1,159 4.2 -27.9°
